Weather Roundup
Issued by NWS Springfield, MO

Home | Current Version | Previous Version | Text Only | Print | Product List | Glossary On
Versions: 1 2 3 4 5 6 7 8 9 10 11 12 13 14 15 16 17 18 19 20 21 22 23 24 25 26 27 28 29 30 31 32 33 34 35 36 37 38 39 40 41 42 43 44 45 46 47 48 49 50
000
NZUS99 KSGF 141757
HRRSGF

HOURLY WEATHER
NATIONAL WEATHER SERVICE SPRINGFIELD MO
1200 PM CST THU DEC 14 2017

......SGF CWA......

CITY           SKY/WX    TMP DP  RH WIND       PRES   REMARKS
SPRINGFIELD    CLOUDY    39  22  50 N17       30.07F WCI  30
6HR MIN TEMP:  34; 6HR MAX TEMP:  39;

JOPLIN         CLOUDY    40  27  59 N6        30.12F
6HR MIN TEMP:  27; 6HR MAX TEMP:  40;

WEST PLAINS    CLOUDY    43  22  43 NW8       30.05F
6HR MIN TEMP:  31; 6HR MAX TEMP:  43;

ROLLA          CLOUDY    34  23  64 NW7       30.05F WCI  28
6HR MIN TEMP:  30; 6HR MAX TEMP:  34;

BRANSON        CLOUDY    39  21  48 N10       30.08F WCI  32

......SURROUNDING SGF CWA......

CITY           SKY/WX    TMP DP  RH WIND       PRES   REMARKS
CHANUTE        CLOUDY    42  27  55 N8        30.12F
PARSONS        CLOUDY    42  29  59 NW8       30.14F
COFFEYVILLE    CLOUDY    42  29  59 N9        30.14S
EMPORIA        PTSUNNY   41  24  51 N10       30.11F
HARRISON AR    CLOUDY    40  25  55 NW10      30.07S WCI  33

......KANSAS AND MISSOURI......

CITY           SKY/WX    TMP DP  RH WIND       PRES   REMARKS
KANSAS CTY INT CLOUDY    38  25  59 NW7       30.09F WCI  33
SEDALIA        CLOUDY    36  24  62 N12       30.11F WCI  28
ST JOSEPH      CLOUDY    39  26  59 NW8       30.10F WCI  33
ST LOUIS       CLOUDY    32  18  56 VRB3      30.10S
WICHITA        MOSUNNY   47  27  45 N9        30.14F
TOPEKA         CLOUDY    43  26  51 W10       30.10F
OLATHE         CLOUDY    38  25  59 NW7       30.09F WCI  33

......TENNESSEE......

CITY           SKY/WX    TMP DP  RH WIND       PRES   REMARKS
MEMPHIS        NOT AVBL
NASHVILLE      CLOUDY    39  26  59 NW9       30.02F WCI  33

......ARKANSAS.......

CITY           SKY/WX    TMP DP  RH WIND       PRES   REMARKS
FAYETTEVILLE   MOSUNNY   42  27  55 N8        30.09F
FT SMITH       SUNNY     51  29  42 W3        30.09F
LITTLE ROCK    MOSUNNY   52  30  43 N12       30.06F

......OKLAHOMA.......

CITY           SKY/WX    TMP DP  RH WIND       PRES   REMARKS
TULSA          PTSUNNY   47  26  44 N12       30.15F
PONCA CITY     SUNNY     47  26  44 N12       30.16F
MCALESTER      MOSUNNY   52  29  41 N16       30.12F
OKLAHOMA CITY  MOSUNNY   47  27  45 N13       30.17F

......IOWA............

CITY           SKY/WX    TMP DP  RH WIND       PRES   REMARKS
DES MOINES     NOT AVBL
QUAD CITIES    MOSUNNY   28  16  60 CALM      30.08F

......ILLINOIS........

CITY           SKY/WX    TMP DP  RH WIND       PRES   REMARKS
QUINCY         CLOUDY    28  16  60 W9        30.09F WCI  19
CHICAGO        PTSUNNY   26  10  50 NW7       30.06F WCI  18




USA.gov is the U.S. government's official web portal to all federal, state and local government web resources and services.